Location: Kelshall
(52.0000°N, 0.0500°W)
Time: 04:11:16
(UTC+00:00)

ATLAS CENTAUR R/B - Pass Details

Date: 20 January 2021
Orbit: 475 x 670 km, 64.7° (Epoch: 06 March)

Event Time Altitude Azimuth Distance (km) Brightness Sun altitude
Rises 05:48:21 0° 164° (SSE) 2,540 5.0 -19.1°
Reaches altitude 10° 05:52:09 10° 124° (SE) 1,649 4.7 -18.6°
Maximum altitude 05:52:55 11° 112° (ESE) 1,614 4.9 -18.5°
Drops below altitude 10° 05:53:42 10° 99° (E) 1,649 5.0 -18.3°
Sets 05:57:28 0° 60° (ENE) 2,536 5.5 -17.8°
